Location: Unspecified
(0.0000°N, 0.0000°E)
Time: 23:24:11
(UTC+00:00)

X-37B - Pass Details

Date: 21 January 2022
Orbit: 334 x 337 km, 45.0° (Epoch: 11 January)

Event Time Altitude Azimuth Distance (km) Brightness Sun altitude
Rises 18:33:56 0° 251° (WSW) 2,094 7.4 -5.3°
Reaches altitude 10° 18:36:36 10° 279° (W) 1,256 4.3 -5.9°
Maximum altitude 18:38:10 14° 313° (NW) 1,058 3.2 -6.3°
Drops below altitude 10° 18:39:44 10° 347° (NNW) 1,252 3.1 -6.7°
Sets 18:42:23 0° 15° (NNE) 2,084 3.9 -7.3°
